Terminal Aerodrome Forecast
Issued by NWS Sioux Falls, SD

Home | Current Version | Previous Version | Graphics & Text | Print | Product List | Glossary On
Versions: 1 2 3 4 5 6 7 8 9 10 11 12 13 14 15 16 17 18 19 20 21 22 23 24 25 26 27 28 29 30 31 32 33
000
FTUS43 KFSD 300258 AAA
TAFSUX
TAF AMD
KSUX 300258Z 3003/3024 08007KT P6SM SCT040 BKN120
      TEMPO 3003/3004 BKN008
     FM300600 10012KT P6SM BKN015
     FM301500 11012G16KT 5SM SHRA OVC015
     FM301900 15015G25KT P6SM BKN035=

USA.gov is the U.S. government's official web portal to all federal, state and local government web resources and services.